Weather History for KSNL - October, 2013

Change the Weather History Date:

Monday, October 7, 2013

  Actual Average (KTIK) Record (KTIK)
Temperature  
Mean Temperature 62 °F -  
Max Temperature 80 °F 71 °F 92 °F (2014)
Min Temperature 44 °F 53 °F 37 °F (2012)
Degree Days  
Heating Degree Days 3    
Growing Degree Days 12 (Base 50)    
Moisture  
Dew Point 45 °F    
Average Humidity 56    
Maximum Humidity 94    
Minimum Humidity 28    
Precipitation  
Precipitation 0.00 in - - ()
Sea Level Pressure  
Sea Level Pressure 30.15 in    
Wind  
Wind Speed 1 mph (ENE)    
Max Wind Speed 6 mph    
Max Gust Speed -    
Visibility 9 miles    
Events Rain    
Averages and records for this station are not official NWS values.
T = Trace of Precipitation, MM = Missing Value Source: NWS Daily Summary

Daily Weather History Graph

Daily Weather History Graph

Search for Another Location

Airport or City:

Trip Planner

Search our weather history database for the weather conditions in past years. The results will help you decide how hot, cold, wet, or windy it might be!

Date:

Astronomy

Oct. 07, 2013 Rise Set
Actual Time 7:27 AM CDT 7:02 PM CDT
Civil Twilight 7:02 AM CDT 7:28 PM CDT
Nautical Twilight 6:32 AM CDT 7:57 PM CDT
Astronomical Twilight 6:03 AM CDT 8:27 PM CDT
Moon 10:12 AM CDT (10/7) 8:55 PM CDT (10/7)
Length of Visible Light 12h 26m
Length of Day
11h 35m
Waxing Crescent, 9% of the Moon is Illuminated
Oct 7
Waxing Crescent
Oct 11
First Quarter
Oct 18
Full
Oct 26
Last Quarter
Nov 3
New

Hourly Weather History & Observations

Time (CDT) Temp. Dew Point Humidity Pressure Visibility Wind Dir Wind Speed Gust Speed Precip Events Conditions
12:15 AM 51.8 °F 42.8 °F 71% 30.10 in 5.0 mi Calm Calm - N/A   Haze
12:35 AM 51.8 °F 41.0 °F 67% 30.10 in 3.0 mi Calm Calm - N/A   Haze
12:55 AM 51.8 °F 41.0 °F 67% 30.10 in 7.0 mi Calm Calm - N/A   Clear
1:15 AM 51.8 °F 42.8 °F 71% 30.10 in 10.0 mi Calm Calm - N/A   Clear
1:35 AM 51.8 °F 42.8 °F 71% 30.10 in 10.0 mi Calm Calm - N/A   Clear
1:55 AM 51.8 °F 42.8 °F 71% 30.11 in 10.0 mi Calm Calm - N/A   Clear
2:15 AM 51.8 °F 42.8 °F 71% 30.12 in 10.0 mi Calm Calm - N/A   Clear
2:35 AM 51.8 °F 42.8 °F 71% 30.12 in 10.0 mi Calm Calm - N/A   Clear
2:55 AM 50.0 °F 42.8 °F 76% 30.11 in 10.0 mi Calm Calm - N/A   Clear
3:15 AM 50.0 °F 42.8 °F 76% 30.11 in 10.0 mi Calm Calm - N/A   Scattered Clouds
3:35 AM 51.8 °F 44.6 °F 76% 30.12 in 10.0 mi Calm Calm - N/A   Clear
3:55 AM 50.0 °F 42.8 °F 76% 30.12 in 10.0 mi Calm Calm - N/A   Clear
4:15 AM 48.2 °F 41.0 °F 76% 30.12 in 10.0 mi Calm Calm - N/A   Clear
4:35 AM 48.2 °F 41.0 °F 76% 30.12 in 10.0 mi Calm Calm - N/A   Clear
4:55 AM 50.0 °F 42.8 °F 76% 30.12 in 10.0 mi Calm Calm - N/A   Scattered Clouds
5:15 AM 51.8 °F 44.6 °F 76% 30.13 in 10.0 mi Calm Calm - N/A   Scattered Clouds
5:35 AM 51.8 °F 44.6 °F 76% 30.13 in 10.0 mi Calm Calm - N/A   Clear
5:55 AM 48.2 °F 42.8 °F 82% 30.14 in 10.0 mi Calm Calm - N/A   Scattered Clouds
6:15 AM 48.2 °F 44.6 °F 87% 30.14 in 10.0 mi NNE 3.5 mph - N/A   Clear
6:35 AM 51.8 °F 44.6 °F 76% 30.14 in 10.0 mi Calm Calm - N/A   Clear
6:55 AM 48.2 °F 42.8 °F 82% 30.15 in 10.0 mi Calm Calm - N/A   Clear
7:15 AM 46.4 °F 44.6 °F 93% 30.16 in 10.0 mi Calm Calm - N/A   Clear
7:35 AM 44.6 °F 41.0 °F 87% 30.16 in 10.0 mi Calm Calm - N/A   Clear
7:55 AM 44.6 °F 41.0 °F 87% 30.17 in 10.0 mi Calm Calm - N/A   Clear
8:15 AM 48.2 °F 46.4 °F 93% 30.17 in 10.0 mi Calm Calm - N/A   Clear
8:35 AM 51.8 °F 50.0 °F 94% 30.18 in 10.0 mi Calm Calm - N/A   Clear
8:55 AM 55.4 °F 51.8 °F 88% 30.18 in 10.0 mi Calm Calm - N/A   Clear
9:15 AM 59.0 °F 46.4 °F 63% 30.19 in 10.0 mi Calm Calm - N/A   Clear
9:35 AM 60.8 °F 46.4 °F 59% 30.19 in 10.0 mi Calm Calm - N/A   Clear
9:55 AM 62.6 °F 46.4 °F 55% 30.19 in 10.0 mi Calm Calm - N/A   Clear
10:15 AM 66.2 °F 44.6 °F 46% 30.19 in 10.0 mi Calm Calm - N/A   Clear
10:35 AM 68.0 °F 44.6 °F 43% 30.20 in 10.0 mi Calm Calm - N/A   Clear
10:55 AM 71.6 °F 44.6 °F 38% 30.21 in 10.0 mi NNE 5.8 mph - N/A   Clear
11:15 AM 71.6 °F 42.8 °F 35% 30.21 in 10.0 mi NE 4.6 mph - N/A   Clear
11:35 AM 71.6 °F 42.8 °F 35% 30.21 in 10.0 mi North 3.5 mph - N/A   Clear
11:55 AM 71.6 °F 42.8 °F 35% 30.21 in 10.0 mi NE 4.6 mph - N/A   Clear
12:15 PM 73.4 °F 42.8 °F 33% 30.20 in 10.0 mi North 3.5 mph - N/A   Clear
12:35 PM 77.0 °F 44.6 °F 32% 30.20 in 10.0 mi Calm Calm - N/A   Clear
12:55 PM 77.0 °F 44.6 °F 32% 30.19 in 10.0 mi North 3.5 mph - N/A   Clear
1:15 PM 77.0 °F 44.6 °F 32% 30.19 in 10.0 mi NNE 3.5 mph - N/A   Clear
1:35 PM 77.0 °F 44.6 °F 32% 30.18 in 10.0 mi North 3.5 mph - N/A   Clear
1:55 PM 77.0 °F 44.6 °F 32% 30.17 in 10.0 mi Calm Calm - N/A   Clear
2:15 PM 78.8 °F 44.6 °F 30% 30.16 in 10.0 mi North 5.8 mph - N/A   Clear
2:35 PM 78.8 °F 44.6 °F 30% 30.15 in 10.0 mi Calm Calm - N/A   Clear
2:55 PM 78.8 °F 46.4 °F 32% 30.15 in 10.0 mi Calm Calm - N/A   Clear
3:15 PM 80.6 °F 44.6 °F 28% 30.14 in 10.0 mi Calm Calm - N/A   Clear
3:35 PM 80.6 °F 46.4 °F 30% 30.14 in 10.0 mi Calm Calm - N/A   Clear
3:55 PM 80.6 °F 46.4 °F 30% 30.13 in 10.0 mi Calm Calm - N/A   Clear
4:15 PM 80.6 °F 46.4 °F 30% 30.13 in 7.0 mi Calm Calm - N/A   Clear
4:35 PM 80.6 °F 44.6 °F 28% 30.13 in 10.0 mi NNE 3.5 mph - N/A   Clear
4:55 PM 80.6 °F 46.4 °F 30% 30.12 in 10.0 mi NE 3.5 mph - N/A   Clear
5:15 PM 80.6 °F 46.4 °F 30% 30.12 in 10.0 mi ENE 3.5 mph - N/A   Clear
5:35 PM 78.8 °F 44.6 °F 30% 30.12 in 10.0 mi Calm Calm - N/A   Clear
5:55 PM 78.8 °F 46.4 °F 32% 30.12 in 10.0 mi Calm Calm - N/A   Clear
6:15 PM 78.8 °F 46.4 °F 32% 30.12 in 10.0 mi Calm Calm - N/A   Clear
6:35 PM 77.0 °F 44.6 °F 32% 30.12 in 10.0 mi Calm Calm - N/A   Clear
6:55 PM 75.2 °F 46.4 °F 36% 30.12 in 10.0 mi Calm Calm - N/A   Clear
7:15 PM 71.6 °F 44.6 °F 38% 30.13 in 10.0 mi Calm Calm - N/A   Clear
7:35 PM 69.8 °F 46.4 °F 43% 30.13 in 10.0 mi ESE 3.5 mph - N/A   Clear
7:55 PM 68.0 °F 46.4 °F 46% 30.13 in 10.0 mi ESE 3.5 mph - N/A   Clear
8:15 PM 64.4 °F 46.4 °F 52% 30.13 in 10.0 mi Calm Calm - N/A   Clear
8:35 PM 64.4 °F 46.4 °F 52% 30.13 in 10.0 mi ESE 3.5 mph - N/A   Clear
8:55 PM 64.4 °F 46.4 °F 52% 30.14 in 1.8 mi SE 3.5 mph - N/A   Haze
9:15 PM 62.6 °F 46.4 °F 55% 30.14 in 1.8 mi Calm Calm - N/A   Haze
9:35 PM 60.8 °F 46.4 °F 59% 30.14 in 10.0 mi Calm Calm - N/A   Clear
9:55 PM 59.0 °F 46.4 °F 63% 30.14 in 0.8 mi ESE 4.6 mph - N/A   Haze
10:15 PM 60.8 °F 46.4 °F 59% 30.14 in 0.5 mi ESE 3.5 mph - N/A   Haze
10:35 PM 60.8 °F 46.4 °F 59% 30.14 in 1.2 mi Calm Calm - N/A   Haze
10:55 PM 57.2 °F 44.6 °F 63% 30.14 in 10.0 mi Calm Calm - N/A   Scattered Clouds
11:15 PM 57.2 °F 44.6 °F 63% 30.14 in 0.8 mi SE 3.5 mph - N/A   Drizzle
11:35 PM 57.2 °F 44.6 °F 63% 30.14 in 1.8 mi Calm Calm - N/A   Haze
11:55 PM 57.2 °F 44.6 °F 63% 30.13 in 0.5 mi ESE 4.6 mph - N/A Rain Light Rain